{"data":{"norad_id":68352,"epoch":"2026-05-25T09:01:42.592224Z","epoch_age_seconds":56620,"freshness":"FRESH","line1":"1 68352U 26060C   26145.37618741 -.00000039  00000+0  25658-4 0  9995","line2":"2 68352  54.9797 129.0816 0010420  79.1040 281.1130 14.73368265  9406","mean_motion":14.73368265,"eccentricity":0.001042,"inclination_deg":54.9797,"raan_deg":129.0816,"arg_perigee_deg":79.104,"mean_anomaly_deg":281.113,"bstar":2.5658e-5,"rev_number":940,"period_min":97.73523932932,"perigee_km":643.01210949547,"apogee_km":657.65944676509,"semimajor_km":7028.4727781303,"source":"CELESTRAK","updated_at":"2026-05-25T13:38:07.760759Z"}}